Tracking 29090 objects as of 15-Jul-2024
HD Live streaming from Space Station
objects crossing your sky now

STARLINK-30088

Track STARLINK-30088 now!
10-day predictions
STARLINK-30088 is classified as:


NORAD ID: 57462
Int'l Code: 2023-107F
Perigee: 565.0 km
Apogee: 567.3 km
Inclination: 43.0 °
Period: 95.8 minutes
Semi major axis: 6937 km
RCS: Unknown
Launch date: July 28, 2023
Source: (TBD)
Launch site: AIR FORCE EASTERN TEST RANGE (AFETR)
Your satellite tracking list
Your tracking list is empty




NASA's NSSDC Master Catalog

Two Line Element Set (TLE):
1 57462U 23107F   24196.81084074  .00015259  00000-0  11415-2 0  9997
2 57462  43.0032  14.9428 0001606 271.7234  88.3425 15.02559032 54422
Source of the keplerian elements: AFSPC